Provo, UT

3:48 PM MDT on August 31, 2016 (GMT -0600)
Provo Municipal

Weather History for KPVU - March, 2013

Change the Weather History Date:

Friday, March 1, 2013

  Actual Average Record
Temperature  
Mean Temperature 36 °F -  
Max Temperature 44 °F 41 °F 68 °F (1986)
Min Temperature 28 °F 25 °F 15 °F (1997)
Degree Days  
Heating Degree Days 29    
Moisture  
Dew Point 27 °F    
Average Humidity 76    
Maximum Humidity 100    
Minimum Humidity 57    
Precipitation  
Precipitation 0.00 in - - ()
Sea Level Pressure  
Sea Level Pressure 30.53 in    
Wind  
Wind Speed 2 mph (SSW)    
Max Wind Speed 6 mph    
Max Gust Speed -    
Visibility 11 miles    
Events      
Averages and records for this station are not official NWS values.
T = Trace of Precipitation, MM = Missing Value Source: NWS Daily Summary

Daily Weather History Graph

Daily Weather History Graph

Search for Another Location

Airport or City:

Trip Planner

Search our weather history database for the weather conditions in past years. The results will help you decide how hot, cold, wet, or windy it might be!

Date:

Astronomy

Mar. 01, 2013 Rise Set
Actual Time 6:59 AM MST 6:18 PM MST
Civil Twilight 6:32 AM MST 6:46 PM MST
Nautical Twilight 6:01 AM MST 7:17 PM MST
Astronomical Twilight 5:29 AM MST 7:49 PM MST
Moon 10:57 PM MST (3/1) 8:48 AM MST (3/1)
Length of Visible Light 12h 13m
Length of Day
11h 19m
Waning Gibbous, 83% of the Moon is Illuminated
Mar 1
Waning Gibbous
Mar 4
Last Quarter
Mar 11
New
Mar 19
First Quarter
Mar 27
Full

Hourly Weather History & Observations

Time (MST) Temp. Windchill Dew Point Humidity Pressure Visibility Wind Dir Wind Speed Gust Speed Precip Events Conditions
12:15 AM 32.0 °F - 21.2 °F 64% 30.51 in 10.0 mi Calm Calm - N/A   Unknown
12:35 AM 32.0 °F - 21.2 °F 64% 30.50 in 10.0 mi Calm Calm - N/A   Unknown
1:15 AM 30.2 °F 26.7 °F 23.0 °F 75% 30.51 in 10.0 mi NW 3.5 mph - N/A   Unknown
1:35 AM 32.0 °F 28.7 °F 21.2 °F 64% 30.51 in 10.0 mi WNW 3.5 mph - N/A   Unknown
2:15 AM 30.2 °F - 23.0 °F 75% 30.51 in 10.0 mi Calm Calm - N/A   Unknown
2:55 AM 30.2 °F - 26.6 °F 86% 30.52 in 10.0 mi Calm Calm - N/A   Unknown
3:15 AM 32.0 °F - 26.6 °F 80% 30.51 in 10.0 mi Calm Calm - N/A   Unknown
3:35 AM 30.2 °F - 26.6 °F 86% 30.51 in 10.0 mi Calm Calm - N/A   Unknown
4:15 AM 30.2 °F - 24.8 °F 80% 30.51 in 10.0 mi Calm Calm - N/A   Unknown
4:35 AM 32.0 °F 26.4 °F 26.6 °F 80% 30.51 in 10.0 mi SE 5.8 mph - N/A   Unknown
5:15 AM 32.0 °F 28.7 °F 26.6 °F 80% 30.53 in 10.0 mi SSE 3.5 mph - N/A   Unknown
5:35 AM 32.0 °F 28.7 °F 26.6 °F 80% 30.53 in 10.0 mi South 3.5 mph - N/A   Unknown
5:55 AM 32.0 °F 27.5 °F 26.6 °F 80% 30.53 in 10.0 mi SSW 4.6 mph - N/A   Unknown
6:15 AM 30.2 °F 25.4 °F 26.6 °F 86% 30.54 in 10.0 mi South 4.6 mph - N/A   Unknown
6:35 AM 32.0 °F - 26.6 °F 80% 30.54 in 10.0 mi Calm Calm - N/A   Unknown
6:48 AM 32.0 °F - 26.6 °F 80% 30.54 in 10.0 mi Calm Calm - N/A   Mostly Cloudy
7:50 AM 32.0 °F - 26.6 °F 80% 30.56 in 10.0 mi Calm Calm - N/A   Mostly Cloudy
9:52 AM 35.6 °F 31.7 °F 24.8 °F 65% 30.58 in 10.0 mi WSW 4.6 mph - N/A   Mostly Cloudy
10:49 AM 37.4 °F - 24.8 °F 60% 30.58 in 10.0 mi Calm Calm - N/A   Mostly Cloudy
12:53 PM 41.0 °F 39.0 °F 28.4 °F 61% 30.57 in 15.0 mi Variable 3.5 mph - N/A   Scattered Clouds
1:59 PM 44.6 °F 42.2 °F 30.2 °F 57% 30.53 in 15.0 mi Variable 4.6 mph - N/A   Scattered Clouds
2:59 PM 44.6 °F 43.1 °F 30.2 °F 57% 30.52 in 15.0 mi Variable 3.5 mph - N/A   Scattered Clouds
3:53 PM 44.6 °F 42.2 °F 30.2 °F 57% 30.52 in 15.0 mi Variable 4.6 mph - N/A   Scattered Clouds
4:48 PM 44.6 °F 43.1 °F 30.2 °F 57% 30.51 in 15.0 mi Variable 3.5 mph - N/A   Partly Cloudy
5:47 PM 42.8 °F - 28.4 °F 57% 30.51 in 15.0 mi Calm Calm - N/A   Scattered Clouds
6:48 PM 39.2 °F - 35.6 °F 87% 30.52 in 15.0 mi Calm Calm - N/A   Scattered Clouds
7:55 PM 35.6 °F 31.7 °F 30.2 °F 81% 30.53 in 15.0 mi Variable 4.6 mph - N/A   Scattered Clouds
8:51 PM 35.6 °F - 28.4 °F 75% 30.53 in 15.0 mi Calm Calm - N/A   Scattered Clouds
8:55 PM 35.6 °F - 28.4 °F 75% 30.53 in 10.0 mi Calm Calm - N/A   Unknown
9:15 PM 33.8 °F - 28.4 °F 81% 30.54 in 10.0 mi Calm Calm - N/A   Unknown
9:35 PM 32.0 °F - 26.6 °F 80% 30.54 in 10.0 mi Calm Calm - N/A   Unknown
9:55 PM 32.0 °F 28.7 °F 26.6 °F 80% 30.54 in 10.0 mi SSE 3.5 mph - N/A   Unknown
10:35 PM 30.2 °F 26.7 °F 28.4 °F 93% 30.53 in 10.0 mi SSW 3.5 mph - N/A   Unknown
10:55 PM 28.4 °F 23.3 °F 26.6 °F 93% 30.53 in 8.0 mi SSW 4.6 mph - N/A   Unknown
11:15 PM 28.4 °F - 26.6 °F 93% 30.53 in 8.0 mi Calm Calm - N/A   Unknown
11:35 PM 28.4 °F 23.3 °F 28.4 °F 100% 30.53 in 7.0 mi NNE 4.6 mph - N/A   Unknown
11:55 PM 30.2 °F - 26.6 °F 86% 30.53 in 8.0 mi Calm Calm - N/A   Unknown